Tracking 17742 objects as of 24-June-2016
HD Live streaming from Space Station
objects crossing your sky now

TITAN 3C TRANSTAGE R/B

Track TITAN 3C TRANSTAGE R/B now!


NORAD ID: 10942
Int'l Code: 1978-058B
Perigee: 29,606.1 km
Apogee: 42,344.5 km
Inclination: 6.9 °
Period: 1,445.4 minutes
Semi major axis: 42346 km
RCS: Unknown
Launch date: June 10, 1978
Source: United States (US)
Launch site: AIR FORCE EASTERN TEST RANGE (AFETR)

Note: This is a ROCKET BODY
Your satellite tracking list
Your tracking list is empty





NASA's NSSDC Master Catalog

Two Line Element Set (TLE):
1 10942U 78058B   16036.66261718 0.00000000  00000-0  00000-0 0    00
2 10942   6.9287  30.1858 1504073  50.4631 321.9312  0.99627449    05
Source of the keplerian elements: McCants

N2YO: 844